Location: Del Amo
(33.8464°N, 118.2104°W)
Time: 17:20:04
(UTC+00:00)

Vanguard 2 Rocket - Pass Details

Date: 14 September 2024
Orbit: 553 x 3298 km, 32.9° (Epoch: 11 October)

Event Time Altitude Azimuth Distance (km) Brightness Sun altitude
Rises 07:32:15 0° 213° (SSW) 3,802 - -52.8°
Reaches altitude 10° 07:34:43 10° 204° (SSW) 3,129 - -52.8°
Maximum altitude 07:41:57 36° 140° (SE) 2,462 - -52.9°
Exits shadow 07:50:57 16° 87° (E) 4,372 10.3 -53.0°
Drops below altitude 10° 07:53:46 10° 81° (E) 5,132 10.7 -53.0°
Sets 07:59:07 0° 75° (ENE) 6,560 11.4 -52.9°
